Notices

What's New in latest Release from April 7th, 2021:

- Updated Glossary, including Speed of Maximum Gust, and Total Hourly Precipitation

- Updated national and regional climate services offices contacts and prices information

- Addition of station inventory lists for 1981-2010, 1971-2000, and 1961-1990 Normals.

If you haven't already, please take our survey and provide feedback about our website: https://eccc.sondage-survey.ca/f/LanguageSelection.aspx?s=442ca660-fcf1-47c0-95a9-59707d6fd709

Hourly Data Report for July 18, 2018

OTTAWA INTL A
ONTARIO
Current Station Operator: NAVCAN

45°19'00.000" N
75°40'00.000" W
114.90 m
6106001
71628
YOW

Download Data

Hourly Data (July 2018)
Hourly Data Report for July 18, 2018
TIME
LST
Temp Definition
°C
Dew Point Definition
°C
Rel Hum Definition
%
Precip. Amount Definition
mm

Wind Dir Definition
10's deg

Wind Spd Definition
km/h
Visibility Definition
km
Stn Press Definition
kPa
Hmdx Definition


Wind Chill Definition


Weather Definition


00:00 17.9 11.7 67   33 19 24.1 100.01     LegendNANA
01:00 17.4 9.4 59   35 23 24.1 100.05     Clear
02:00 16.5 8.8 60   35 22 24.1 100.09     LegendNANA
03:00 15.0 9.5 70   32 14 24.1 100.16     LegendNANA
04:00 13.0 9.1 77   31 13 24.1 100.21     Clear
05:00 13.9 8.4 69   32 13 24.1 100.28     LegendNANA
06:00 15.7 6.9 55   36 12 24.1 100.36     LegendNANA
07:00 16.6 7.2 53   35 13 24.1 100.40     Clear
08:00 18.1 7.0 48   33 25 24.1 100.40     LegendNANA
09:00 19.2 6.7 44   32 13 24.1 100.40     LegendNANA
10:00 19.9 6.6 42   35 20 24.1 100.39     Mainly Clear
11:00 21.0 6.4 38   35 16 24.1 100.36     LegendNANA
12:00 21.9 5.7 34   32 18 24.1 100.34     LegendNANA
13:00 22.2 6.1 35   30 9 24.1 100.32     Mainly Clear
14:00 22.7 6.6 35   33 23 24.1 100.29     LegendNANA
15:00 23.2 6.9 35   34 13 24.1 100.26     LegendNANA
16:00 23.5 6.4 33   30 15 24.1 100.23     Mainly Clear
17:00 23.5 6.9 34   35 12 24.1 100.21     LegendNANA
18:00 23.2 6.8 34   29 16 24.1 100.23     LegendNANA
19:00 22.2 7.6 38   31 11 24.1 100.27     Mainly Clear
20:00 20.5 7.1 41   35 12 24.1 100.27     LegendNANA
21:00 16.1 7.8 57   4 7 24.1 100.33     LegendNANA
22:00 15.4 8.1 62   8 7 24.1 100.33     Clear
23:00 13.6 8.5 71   18 4 24.1 100.34     LegendNANA

Notes on Data Quality.

Legend

  • E = Estimated
  • M = Missing
  • NA = Not Available*
  • [empty] = Indicates an unobserved value
Date modified: